EW3861 Weather Reports


time (UTC)temp
F
wind
direction
speed
knots
gust
knots
rain 1hr
in
rain 24hr
in
rain mn
in
humidity
%
barometer
mb
20260506163012 66 219 0.0 0.0 0.00 0.00 0.00 72 1008.4
20260506161603 66 283 0.0 0.0 0.00 0.00 0.00 71 1008.6
20260506160033 66 172 0.0 0.0 0.00 0.00 0.00 71 1008.7
20260506154626 66 319 0.0 0.0 0.00 0.00 0.00 71 1008.9
20260506153052 66 209 0.0 0.0 0.00 0.00 0.00 73 1009.2
20260506151508 66 205 0.0 0.0 0.00 0.00 0.00 73 1009.2
20260506150106 65 196 0.0 0.0 0.00 0.00 0.00 74 1009.2
20260506144537 65 209 0.0 0.0 0.00 0.00 0.00 74 1009.2
20260506143002 65 211 0.0 0.0 0.00 0.00 0.00 73 1009.0
20260506141551 65 289 0.0 0.0 0.00 0.00 0.00 74 1009.2
20260506140005 64 231 0.0 0.0 0.00 0.00 0.00 75 1009.1
20260506134603 64 213 0.0 0.0 0.00 0.00 0.00 76 1009.3
20260506133021 62 205 0.0 0.0 0.00 0.00 0.00 80 1009.7
20260506131604 62 221 0.0 0.0 0.00 0.00 0.00 81 1009.8
20260506130036 60 193 0.0 0.0 0.00 0.00 0.00 83 1009.9
20260506124513 60 227 0.0 0.0 0.00 0.00 0.00 84 1009.9
20260506123057 59 204 0.0 0.0 0.00 0.00 0.00 85 1009.8
20260506121512 59 221 0.0 0.0 0.00 0.00 0.00 87 1009.8
20260506120106 58 261 0.0 0.0 0.00 0.00 0.00 87 1010.1
20260506114537 58 204 0.0 0.0 0.00 0.00 0.00 88 1010.2
20260506113128 57 200 0.0 0.0 0.00 0.00 0.00 89 1010.3
20260506111555 57 229 0.0 0.0 0.00 0.00 0.00 90 1010.2
20260506110019 56 225 0.0 0.0 0.00 0.00 0.00 91 1010.2
20260506104622 56 210 0.0 0.0 0.00 0.00 0.00 91 1010.2
20260506103043 56 184 0.0 0.0 0.00 0.00 0.00 91 1010.1
20260506101506 56 240 0.0 0.0 0.00 0.00 0.00 90 1010.2
20260506100105 56 229 0.0 0.0 0.00 0.00 0.00 90 1010.0
20260506094559 57 202 0.0 0.0 0.00 0.00 0.00 89 1009.8
20260506093128 57 225 0.0 0.0 0.00 0.00 0.00 89 1010.0
20260506091550 57 211 0.0 0.0 0.00 0.00 0.00 88 1009.9
20260506090012 57 213 0.0 0.0 0.00 0.00 0.00 88 1010.0
20260506084633 57 248 0.0 0.0 0.00 0.00 0.00 88 1010.1
20260506083053 57 223 0.0 0.0 0.00 0.00 0.00 87 1010.1
20260506081517 57 222 0.0 0.0 0.00 0.00 0.00 87 1010.2
20260506080109 58 209 0.0 0.0 0.00 0.00 0.00 86 1010.2
20260506073015 58 205 0.0 0.0 0.00 0.00 0.00 85 1010.1
20260506071602 58 216 0.0 0.0 0.00 0.00 0.00 84 1009.9
20260506060130 58 215 0.0 0.0 0.00 0.00 0.00 82 1010.0
20260506044503 58 221 0.0 0.0 0.00 0.00 0.00 80 1010.5
20260506043056 58 228 0.0 0.0 0.00 0.00 0.00 79 1010.5
20260506041514 59 219 0.0 0.0 0.00 0.00 0.00 78 1010.4
20260506040106 58 231 0.0 0.0 0.00 0.00 0.00 78 1010.4
20260506034537 58 221 0.0 0.0 0.00 0.00 0.00 78 1010.4
20260506033004 58 221 0.0 0.0 0.00 0.00 0.00 77 1010.4
20260506031559 58 223 0.0 0.0 0.00 0.00 0.00 76 1010.3
20260506030026 58 221 0.0 0.0 0.00 0.00 0.00 75 1010.4
20260506024633 59 223 0.0 0.0 0.00 0.00 0.00 74 1010.2
20260506023049 59 220 0.0 0.0 0.00 0.00 0.00 73 1010.2
20260506021505 59 209 0.0 0.0 0.00 0.00 0.00 73 1010.3
20260506020055 60 274 0.0 0.0 0.00 0.00 0.00 73 1010.2
20260506014536 60 225 0.0 0.0 0.00 0.00 0.00 73 1010.2
20260506013125 60 205 0.0 0.0 0.00 0.00 0.00 73 1010.0
20260506011547 59 219 0.0 0.0 0.00 0.00 0.00 74 1009.8
20260506010004 59 247 0.0 0.0 0.00 0.00 0.00 75 1009.8
20260506004503 59 304 0.0 0.0 0.00 0.00 0.00 75 1009.6
20260506003057 59 234 0.0 0.0 0.00 0.00 0.00 74 1009.5
20260506001518 59 226 0.0 0.0 0.00 0.00 0.00 74 1009.2
20260506000111 60 221 0.0 0.0 0.00 0.00 0.00 73 1008.9
20260505234530 60 240 0.0 0.0 0.00 0.00 0.00 73 1008.6
20260505233124 60 220 0.0 0.0 0.00 0.00 0.00 72 1008.6
20260505231559 61 219 0.0 0.0 0.00 0.00 0.00 71 1008.4
20260505230019 61 194 0.0 0.0 0.00 0.00 0.00 71 1008.0
20260505224630 62 240 0.0 0.0 0.00 0.00 0.00 70 1007.8
20260505223047 63 290 0.0 0.0 0.00 0.00 0.00 68 1007.8
20260505221634 64 221 0.0 0.0 0.00 0.00 0.00 66 1007.8
20260505220059 66 244 0.0 0.0 0.00 0.00 0.00 63 1007.8
20260505214554 67 196 0.0 0.0 0.00 0.00 0.00 61 1007.5
20260505213011 68 214 0.0 0.0 0.00 0.00 0.00 60 1007.3
20260505211602 69 213 0.0 0.0 0.00 0.00 0.00 59 1007.4
20260505210021 69 182 0.0 0.0 0.00 0.00 0.00 57 1007.4
20260505204631 71 221 0.0 0.0 0.00 0.00 0.00 56 1007.3
20260505203055 71 207 0.0 0.0 0.00 0.00 0.00 55 1007.5
20260505201511 70 233 0.0 0.0 0.00 0.00 0.00 55 1007.5
20260505200104 72 230 0.0 0.0 0.00 0.00 0.00 55 1007.5
20260505194534 71 204 0.0 0.0 0.00 0.00 0.00 54 1007.5
20260505193126 72 219 0.0 0.0 0.00 0.00 0.00 54 1007.7
20260505191606 73 238 0.0 0.0 0.00 0.00 0.00 53 1007.5
20260505190012 74 231 0.0 0.0 0.00 0.00 0.00 51 1007.7
20260505184636 76 204 0.0 0.0 0.00 0.00 0.00 49 1007.5
20260505183051 76 220 0.0 0.0 0.00 0.00 0.00 50 1007.5
20260505181512 75 226 0.0 0.0 0.00 0.00 0.00 51 1007.9
20260505180010 74 221 0.0 0.0 0.00 0.00 0.00 53 1008.0
20260505174612 74 294 0.0 0.0 0.00 0.00 0.00 52 1008.2
20260505173021 75 272 0.0 0.0 0.00 0.00 0.00 52 1008.5
20260505171611 74 222 0.0 0.0 0.00 0.00 0.00 57 1008.4
20260505170025 73 202 0.0 0.0 0.00 0.00 0.00 56 1008.5
20260505164632 73 153 0.0 0.0 0.00 0.00 0.00 58 1008.8